Location: Peebles
(55.6412°N, 3.1714°W)
Time: 15:21:57
(UTC+01:00)

Cosmos 2151 Rocket - Pass Details

Date: 26 September 2021
Orbit: 616 x 643 km, 82.5° (Epoch: 17 October)

Event Time Altitude Azimuth Distance (km) Brightness Sun altitude
Exits shadow 20:55:29 25° 147° (SSE) 1,286 4.7 -16.7°
Maximum altitude 20:57:35 42° 93° (E) 916 4.0 -16.9°
Drops below altitude 10° 21:01:49 10° 23° (NNE) 2,029 6.2 -17.5°
Sets 21:04:08 0° 17° (NNE) 2,937 7.1 -17.8°
